Location: Eckley
(40.9930°N, 75.8630°W)
Time: 23:35:46
(UTC-04:00)

Daily predictions for brighter satellites

Satellite Brightness Start Highest point End
(mag) Time Altitude Azimuth Time Altitude Azimuth Time Altitude Azimuth
Cosmos 2297 Rocket 2.2 19:53:00 10° NNW 19:58:42 80° ENE 20:04:21 10° SSE
CZ-2D R/B 4.2 19:57:24 10° SE 20:00:49 30° ENE 20:04:16 10° N
Cosmos 2082 4.0 19:56:52 10° NNW 20:02:29 74° WSW 20:08:04 10° SSE
Resurs 01 Rocket 1.7 19:59:00 10° SSE 20:03:27 89° W 20:07:55 10° NNW
Cosmos 1975 3.1 20:01:19 10° SSE 20:05:15 47° E 20:09:12 10° NNE
Lacrosse 5 rocket 2.8 20:02:21 10° WNW 20:05:41 31° SW 20:08:54 10° S
FengYun 1-2 T 4.3 20:02:19 10° SSE 20:07:54 72° ENE 20:13:29 10° N
Cosmos 2150 Rocket 4.2 20:07:02 10° N 20:12:05 53° ENE 20:17:09 10° SE
HJ-1C 4.2 20:11:59 10° S 20:15:11 54° W 20:18:27 10° NNW
Cosmos 1515 4.1 20:11:34 10° N 20:15:16 44° E 20:18:55 10° SSE
METEOR-M 4.5 20:10:42 10° S 20:16:01 72° WSW 20:21:23 10° NNW
Cosmos 2084 3.7 20:15:15 10° NW 20:19:19 70° WSW 20:23:36 10° SSE
Cosmos 1898 Rocket 3.5 20:14:15 10° NNW 20:19:32 67° ENE 20:24:44 10° SSE
Cosmos 468 Rocket 3.9 20:21:42 10° S 20:26:47 72° ESE 20:31:55 10° NNE
Cosmos 841 Rocket 4.2 20:25:52 10° SSE 20:30:27 32° E 20:35:02 10° NE
Cosmos 1697 Rocket 2.7 20:25:08 10° SSW 20:30:46 82° ESE 20:36:27 10° NNE
Cosmos 2173 Rocket 4.3 20:29:48 10° SSE 20:35:49 46° E 20:41:48 10° NNE
H-2A R/B 3.8 20:35:01 13° E 20:36:17 15° ENE 20:38:36 10° NNE
Cosmos 1743 3.3 20:33:12 10° SSE 20:36:49 36° E 20:40:26 10° NNE
Cosmos 1626 Rocket 3.9 20:33:46 10° NNW 20:38:09 70° W 20:42:27 10° S
Cosmos 1066 Rocket 4.2 20:35:31 10° N 20:41:15 72° E 20:47:04 10° SSE
Cosmos 1814 Rocket 4.0 20:36:30 10° SSW 20:41:50 82° ESE 20:47:09 10° NNE
CZ-4B DEB 3.8 20:39:08 10° S 20:42:19 47° W 20:45:31 10° NNW
Lacrosse 5 2.2 20:41:47 10° NW 20:46:48 63° SW 20:50:59 15° SSE
SL-16 R/B 3.2 20:42:28 10° SSE 20:46:52 24° ESE 20:51:18 10° NE
Cosmos 1939 Rocket 3.9 20:46:28 21° ESE 20:48:19 31° ENE 20:52:00 10° N
Cosmos 1602 Rocket 4.4 20:44:56 10° NNW 20:49:15 52° W 20:53:31 10° S
Cosmos 1758 Rocket 4.3 20:48:21 10° NNE 20:52:14 31° ENE 20:53:45 25° ESE
Iridium 4 Rocket 3.4 20:50:04 10° N 20:54:55 75° W 20:59:20 10° S
USA 186 2.0 20:52:31 11° S 20:55:21 59° W 20:58:04 10° NNW
Cosmos 1980 Rocket 2.1 20:50:01 10° SSW 20:55:42 80° ESE 21:01:25 10° NNE
Cosmos 2100 Rocket 3.9 20:49:42 10° S 20:55:56 73° E 21:02:08 10° N
SPOT 5 4.1 20:57:22 22° E 20:58:42 25° ENE 21:02:32 10° NNE
YAOGAN 11 4.2 20:58:11 21° SSE 21:01:02 60° ENE 21:05:23 10° N
FENGYUN 3A 4.3 20:56:07 10° S 21:01:20 56° W 21:06:37 10° NNW
ALOS 3.3 20:59:22 10° S 21:03:49 45° W 21:08:19 10° NNW
H-2A R/B 4.0 21:03:27 10° S 21:07:11 42° W 21:10:57 10° NNW
YAOGAN 6 4.4 21:08:22 18° ENE 21:08:22 18° ENE 21:10:28 10° NNE
deb Chang Zheng 4 4.3 21:06:30 10° NNE 21:10:31 32° E 21:10:32 32° E
Cosmos 1666 2.9 21:13:59 45° ESE 21:14:11 46° E 21:17:50 10° NNE
RESURS DK-1 3.6 21:10:34 10° NW 21:14:25 38° WSW 21:17:35 14° S
Envisat 3.1 21:12:39 30° SE 21:15:04 59° ENE 21:20:04 10° N
Cosmos 2061 Rocket 4.0 21:09:09 10° S 21:15:27 87° W 21:21:44 10° N
CZ-4 DEB 2.6 21:14:51 54° SSE 21:15:29 90° WSW 21:18:39 10° NNW
Cosmos 1937 Rocket 4.2 21:11:11 10° NNW 21:16:19 53° WSW 21:21:07 12° S
Cosmos 1459 Rocket 4.0 21:10:26 10° S 21:16:29 83° W 21:22:39 10° N
OAO 2 Rocket 4.3 21:12:03 10° WSW 21:16:30 33° SSW 21:17:57 27° SSE
Cosmos 1842 3.4 21:14:44 10° N 21:18:31 47° E 21:18:45 47° E
Cosmos 2263 Rocket 3.3 21:14:20 10° N 21:19:03 27° NE 21:20:21 25° ENE
Tiangong 1 2.5 21:18:28 10° W 21:21:05 27° SSW 21:21:05 27° SSW
Cosmos 1606 Rocket 3.5 21:17:06 10° S 21:21:30 89° W 21:25:59 10° N
Cosmos 990 Rocket 4.3 21:17:01 10° NNW 21:22:13 65° WSW 21:25:45 20° S
Cosmos 2058 Rocket 3.1 21:22:10 37° SSE 21:23:45 60° E 21:28:12 10° NNE
Cosmos 1725 Rocket 4.0 21:23:02 24° SSE 21:26:46 57° E 21:32:52 10° NNE
Cosmos 1340 3.2 21:25:59 10° NNW 21:29:44 57° W 21:31:12 33° SSW
Cosmos 2322 Rocket 2.1 21:25:40 10° S 21:31:09 61° ESE 21:36:42 10° NNE
ERS-1 Rocket 3.0 21:29:00 26° S 21:31:51 75° WSW 21:36:53 10° NNW
MetOp-A 4.4 21:31:14 42° ESE 21:32:23 49° ENE 21:37:33 10° N
Cosmos 1726 Rocket 4.0 21:40:10 18° SSW 21:43:22 60° W 21:47:45 10° N
Meteor 2-9 Rocket 4.0 21:42:27 23° S 21:45:57 90° W 21:51:22 10° N
Cosmos 2233 Rocket 4.1 21:46:04 47° ESE 21:46:47 50° E 21:52:46 10° NNE
H-2A R/B 3.5 21:54:29 22° NE 21:54:29 22° NE 21:57:20 10° NNE
Cosmos 783 Rocket 4.4 21:54:20 69° ESE 21:54:24 69° ESE 21:59:40 10° NNE
Meteor 2-5 Rocket 4.3 21:51:54 10° N 21:57:20 43° ENE 21:57:20 43° ENE
Meteor 1-15 Rocket 4.3 21:56:10 26° SSW 21:59:38 80° W 22:05:31 10° N
BREEZE-M DEB (TANK) 2.9 21:57:29 10° WNW 21:59:21 51° WNW 21:59:21 51° WNW
ASTEX 1 3.6 21:59:09 10° N 22:04:08 70° W 22:05:15 52° SW
Cosmos 405 Rocket 4.2 22:02:31 10° N 22:04:31 30° N 22:04:31 30° N
Cosmos 1125 Rocket 3.7 22:02:41 10° NNW 22:07:50 63° WSW 22:08:30 57° SW
Cosmos 2228 3.4 22:08:23 59° WNW 22:08:23 59° WNW 22:12:22 10° N
H-2A R/B 2.8 22:12:09 47° W 22:12:09 47° W 22:15:55 10° NNW
Cosmos 540 Rocket 3.5 22:12:07 70° WSW 22:12:36 77° WNW 22:17:45 10° NNE
SPOT 1/Viking Rocket 3.6 22:13:18 70° NE 22:13:18 70° NE 22:18:07 10° N
Cosmos 332 Rocket 4.2 22:17:01 58° W 22:17:33 62° WNW 22:22:26 10° NNE
Cosmos 371 Rocket 4.2 22:20:55 40° NNE 22:20:55 40° NNE 22:23:59 10° NNE
ARGOS 3.1 22:20:24 73° NNE 22:20:24 73° NNE 22:25:24 10° N
MetOp-B 4.5 22:25:40 56° WSW 22:25:58 57° WSW 22:31:16 10° NNW
USA 245 4.5 22:26:45 71° SSW 22:27:23 78° WSW 22:33:39 10° NNW
NOAA 11 4.2 22:29:45 76° NW 22:29:45 76° NW 22:34:48 10° NNW
Cosmos 1844 Rocket 4.3 22:25:08 10° N 22:28:41 22° NE 22:28:41 22° NE
SL-16 R/B 3.0 22:25:10 10° SW 22:30:37 48° WNW 22:36:07 10° NNE
BREEZE-M TANK 4.4 22:27:17 10° WNW 22:31:14 26° WSW 22:31:14 26° WSW
Cosmos 372 Rocket 4.5 22:28:46 10° NNW 22:33:14 55° WNW 22:33:14 55° WNW
SPOT 5 4.1 22:36:37 36° W 22:36:37 36° W 22:40:59 10° NNW
Cosmos 2360 Rocket 3.3 22:42:34 34° NNE 22:42:34 34° NNE 22:45:43 10° NNE
Cosmos 2346 Rocket 4.4 22:33:49 10° N 22:39:53 78° WNW 22:39:53 78° WNW
Terra 3.4 22:47:05 29° N 22:47:05 29° N 22:49:32 10° N
Cosmos 2263 Rocket 3.3 22:57:52 10° NW 23:02:03 39° WNW 23:02:03 39° WNW
Cosmos 2322 Rocket 4.4 23:11:26 10° W 23:15:38 21° NW 23:19:53 10° N
H-2A R/B 4.0 23:35:08 24° NW 23:35:08 24° NW 23:37:19 10° NNW
USA 215 3.8 23:39:52 54° NNW 23:39:52 54° NNW 23:44:52 10° NW
